This is the latest recevied weather packets stored in our database for station/object G4KVI. If no packets are shown the sender has not sent any weather packets the latest 10 day(s).
| Time | Temp. | Humidity | Pressure | Rain* | Wind** | Luminosity | Snow |
|---|---|---|---|---|---|---|---|
| 1788015006 | 20.56° C | 81% | 1002.5 hPa | 0 mm | - | 556 W/m² | - |
| 1788014706 | 20.56° C | 82% | 1002.2 hPa | 0 mm | - | 191 W/m² | - |
| 1788014406 | 20.56° C | 80% | 1002.2 hPa | 0 mm | - | 138 W/m² | - |
| 1788014106 | 20.56° C | 78% | 1002.3 hPa | 0 mm | - | 165 W/m² | - |
| 1788013806 | 20.56° C | 79% | 1002.3 hPa | 0 mm | - | 319 W/m² | - |
| 1788013506 | 20.56° C | 81% | 1002.1 hPa | 0.25 mm | - | 565 W/m² | - |
| 1788013206 | 20.56° C | 87% | 1002 hPa | 0.25 mm | - | 532 W/m² | - |
| 1788012906 | 20° C | 88% | 1001.9 hPa | 0.25 mm | - | 525 W/m² | - |
| 1788012606 | 20° C | 90% | 1001.9 hPa | 0.25 mm | - | 177 W/m² | - |
| 1788012306 | 19.44° C | 90% | 1001.6 hPa | 0.25 mm | - | 348 W/m² | - |
| 1788012006 | 18.89° C | 89% | 1001.8 hPa | 0.51 mm | - | 274 W/m² | - |
| 1788011706 | 18.89° C | 91% | 1001.6 hPa | 0.76 mm | - | 172 W/m² | - |
| 1788011406 | 18.33° C | 91% | 1001.8 hPa | 1.02 mm | - | 231 W/m² | - |
| 1788011106 | 18.33° C | 92% | 1001.8 hPa | 1.27 mm | - | 466 W/m² | - |
| 1788010806 | 17.78° C | 92% | 1001.6 hPa | 1.27 mm | - | 318 W/m² | - |
| 1788010506 | 17.78° C | 92% | 1001.9 hPa | 1.27 mm | - | 243 W/m² | - |
| 1788010206 | 17.78° C | 93% | 1001.9 hPa | 1.27 mm | - | 216 W/m² | - |
| 1788009906 | 17.78° C | 93% | 1001.6 hPa | 1.27 mm | - | 193 W/m² | - |
| 1788009606 | 17.78° C | 93% | 1001.9 hPa | 1.27 mm | - | 162 W/m² | - |
| 1788009306 | 17.22° C | 93% | 1001.7 hPa | 1.27 mm | - | 143 W/m² | - |
| 1788009006 | 17.78° C | 93% | 1002 hPa | 1.52 mm | - | 61 W/m² | - |
| 1788008706 | 18.33° C | 93% | 1001.9 hPa | 2.03 mm | - | 49 W/m² | - |
| 1788008406 | 18.33° C | 94% | 1002.1 hPa | 2.03 mm | - | 120 W/m² | - |
| 1788008106 | 18.33° C | 94% | 1002 hPa | 2.03 mm | - | 108 W/m² | - |
| 1788007806 | 18.33° C | 93% | 1001.8 hPa | 2.03 mm | - | 72 W/m² | - |
* Rain latest hour (hover to see other rain measurements)
** Current wind speed in m/s (hover to see current wind gust speed)